When you browse on this site, cookies collect data to enhance your experience and personalize the content and advertising you see.
Visit our Privacy Policy to learn more. By continuing to use the site, you agree to this use of cookies and data.

Hourly Weather Salzburg

Today, 3 July, Friday

Time Temperature Precipitation Wind Pressure Humidity
00:00 +10°C° 1.8 mm 1 mps 626 mmHg 98%
01:00 +10°C° 0 mm 1 mps 626 mmHg 99%
02:00 +10°C° 2.8 mm 1 mps 626 mmHg 99%
03:00 +9°C° 2.8 mm 1 mps 626 mmHg 99%
04:00 +9°C° 2.8 mm 1 mps 626 mmHg 99%
05:00 +9°C° 1.9 mm 1 mps 627 mmHg 98%
06:00 +9°C° 1.9 mm 1 mps 627 mmHg 98%
07:00 +8°C° 0 mm 0 mps 627 mmHg 97%
08:00 +9°C° 0.5 mm 0 mps 628 mmHg 96%
09:00 +9°C° 0.5 mm 0 mps 628 mmHg 95%
10:00 +9°C° 0.5 mm 0 mps 628 mmHg 95%
11:00 +12°C° 0.2 mm 1 mps 628 mmHg 88%
12:00 +13°C° 0.2 mm 1 mps 629 mmHg 81%
13:00 +15°C° 0.2 mm 1 mps 630 mmHg 74%
14:00 +14°C° 0.3 mm 1 mps 629 mmHg 75%
15:00 +14°C° 0.3 mm 2 mps 629 mmHg 76%
16:00 +14°C° 0.3 mm 2 mps 629 mmHg 77%
17:00 +13°C° 0.4 mm 2 mps 629 mmHg 82%
18:00 +13°C° 0.4 mm 1 mps 629 mmHg 86%
19:00 +12°C° 0.4 mm 1 mps 629 mmHg 91%
20:00 +11°C° 0 mm 1 mps 629 mmHg 93%
21:00 +9°C° 0 mm 1 mps 628 mmHg 95%
22:00 +7°C° 0 mm 0 mps 628 mmHg 97%
23:00 +7°C° 0 mm 0 mps 628 mmHg 97%

Tomorrow, 4 July, Saturday

Time Temperature Precipitation Wind Pressure Humidity
00:00 +6°C° 0 mm 0 mps 628 mmHg 97%
01:00 +6°C° 0 mm 0 mps 628 mmHg 96%
02:00 +6°C° 0 mm 0 mps 628 mmHg 96%
03:00 +6°C° 0 mm 0 mps 628 mmHg 97%
04:00 +5°C° 0 mm 0 mps 628 mmHg 97%
05:00 +7°C° 0 mm 0 mps 628 mmHg 94%
06:00 +8°C° 0 mm 0 mps 629 mmHg 91%
07:00 +10°C° 0 mm 0 mps 630 mmHg 89%
08:00 +12°C° 0 mm 0 mps 630 mmHg 80%
09:00 +14°C° 0 mm 1 mps 631 mmHg 71%
10:00 +16°C° 0 mm 1 mps 631 mmHg 61%
11:00 +16°C° 0 mm 1 mps 631 mmHg 61%
12:00 +16°C° 0 mm 1 mps 631 mmHg 61%
13:00 +16°C° 0 mm 2 mps 631 mmHg 60%
14:00 +16°C° 0 mm 2 mps 631 mmHg 59%
15:00 +17°C° 0 mm 2 mps 631 mmHg 59%
16:00 +17°C° 0 mm 2 mps 631 mmHg 58%
17:00 +16°C° 0 mm 1 mps 631 mmHg 66%
18:00 +15°C° 0 mm 1 mps 630 mmHg 74%
19:00 +14°C° 0 mm 1 mps 630 mmHg 81%
20:00 +12°C° 0 mm 1 mps 630 mmHg 86%
21:00 +11°C° 0 mm 1 mps 629 mmHg 90%
22:00 +8°C° 0 mm 0 mps 629 mmHg 95%
23:00 +9°C° 0 mm 1 mps 629 mmHg 95%

Day after tomorrow, 5 July, Sunday

Time Temperature Precipitation Wind Pressure Humidity
00:00 +9°C° 0 mm 1 mps 629 mmHg 94%
01:00 +8°C° 0 mm 1 mps 629 mmHg 94%
02:00 +8°C° 0 mm 1 mps 629 mmHg 95%
03:00 +8°C° 0 mm 1 mps 629 mmHg 95%
04:00 +8°C° 0 mm 1 mps 629 mmHg 95%
05:00 +10°C° 0 mm 1 mps 629 mmHg 91%
06:00 +10°C° 0 mm 0 mps 630 mmHg 86%
07:00 +12°C° 0 mm 0 mps 631 mmHg 82%
08:00 +14°C° 0 mm 0 mps 631 mmHg 71%
09:00 +18°C° 0 mm 1 mps 632 mmHg 59%
10:00 +20°C° 0 mm 1 mps 633 mmHg 47%
11:00 +21°C° 0 mm 1 mps 633 mmHg 46%
12:00 +22°C° 0 mm 1 mps 633 mmHg 45%
13:00 +23°C° 0 mm 1 mps 632 mmHg 44%
14:00 +21°C° 0 mm 2 mps 632 mmHg 47%
15:00 +21°C° 0 mm 2 mps 632 mmHg 50%
16:00 +20°C° 0 mm 2 mps 631 mmHg 53%
17:00 +19°C° 0 mm 2 mps 631 mmHg 63%
18:00 +19°C° 0 mm 1 mps 630 mmHg 72%
19:00 +16°C° 0 mm 1 mps 630 mmHg 82%
20:00 +15°C° 0 mm 1 mps 629 mmHg 86%
21:00 +13°C° 0 mm 1 mps 629 mmHg 90%
22:00 +12°C° 0 mm 1 mps 628 mmHg 94%
23:00 +11°C° 0 mm 1 mps 628 mmHg 94%

6 July, Monday

Time Temperature Precipitation Wind Pressure Humidity
00:00 +11°C° 0 mm 1 mps 628 mmHg 94%
01:00 +11°C° 0 mm 1 mps 628 mmHg 94%
02:00 +10°C° 0 mm 1 mps 627 mmHg 94%
03:00 +10°C° 0 mm 1 mps 627 mmHg 94%
04:00 +9°C° 0 mm 0 mps 627 mmHg 94%
05:00 +10°C° 0 mm 0 mps 627 mmHg 92%
06:00 +12°C° 0 mm 0 mps 628 mmHg 90%
07:00 +13°C° 0 mm 0 mps 628 mmHg 87%
08:00 +13°C° 0.1 mm 0 mps 628 mmHg 86%
09:00 +15°C° 0.1 mm 1 mps 628 mmHg 84%
10:00 +15°C° 0.1 mm 1 mps 628 mmHg 82%
11:00 +15°C° 0.2 mm 1 mps 628 mmHg 83%
12:00 +16°C° 0.2 mm 1 mps 628 mmHg 83%
13:00 +16°C° 0.2 mm 2 mps 628 mmHg 83%
14:00 +15°C° 0.2 mm 2 mps 627 mmHg 87%
15:00 +14°C° 0.2 mm 2 mps 627 mmHg 91%
16:00 +13°C° 0.2 mm 2 mps 627 mmHg 94%
17:00 +12°C° 0.6 mm 2 mps 627 mmHg 96%
18:00 +12°C° 0.6 mm 2 mps 627 mmHg 97%
19:00 +10°C° 0.6 mm 2 mps 627 mmHg 98%
20:00 +9°C° 0.9 mm 2 mps 627 mmHg 98%
21:00 +9°C° 0.9 mm 2 mps 627 mmHg 98%
22:00 +8°C° 0.9 mm 2 mps 627 mmHg 98%
23:00 +8°C° 0.6 mm 2 mps 627 mmHg 98%

7 July, Tuesday

Time Temperature Precipitation Wind Pressure Humidity
00:00 +7°C° 0.6 mm 2 mps 627 mmHg 98%
01:00 +6°C° 0.6 mm 2 mps 627 mmHg 97%
02:00 +7°C° 0.5 mm 1 mps 627 mmHg 97%
03:00 +6°C° 0.5 mm 1 mps 627 mmHg 97%
04:00 +6°C° 0.5 mm 1 mps 627 mmHg 97%
05:00 +6°C° 0.2 mm 1 mps 627 mmHg 97%
06:00 +6°C° 0.2 mm 1 mps 627 mmHg 97%
07:00 +6°C° 0.2 mm 1 mps 627 mmHg 97%
08:00 +6°C° 0.2 mm 0 mps 627 mmHg 94%
09:00 +6°C° 0.2 mm 0 mps 628 mmHg 91%
10:00 +7°C° 0.2 mm 0 mps 628 mmHg 88%
11:00 +8°C° 0 mm 0 mps 628 mmHg 80%
12:00 +10°C° 0 mm 1 mps 629 mmHg 71%
13:00 +12°C° 0 mm 1 mps 629 mmHg 63%
14:00 +11°C° 0 mm 1 mps 629 mmHg 65%
15:00 +11°C° 0 mm 1 mps 629 mmHg 67%
16:00 +11°C° 0 mm 1 mps 629 mmHg 69%
17:00 +11°C° 0 mm 1 mps 629 mmHg 74%
18:00 +10°C° 0 mm 1 mps 629 mmHg 79%
19:00 +10°C° 0 mm 1 mps 629 mmHg 83%
20:00 +8°C° 0 mm 1 mps 629 mmHg 87%
21:00 +7°C° 0 mm 1 mps 629 mmHg 91%
22:00 +6°C° 0 mm 1 mps 629 mmHg 94%
23:00 +4°C° 0 mm 0 mps 629 mmHg 94%

8 July, Wednesday

Time Temperature Precipitation Wind Pressure Humidity
00:00 +4°C° 0 mm 0 mps 629 mmHg 94%
01:00 +3°C° 0 mm 0 mps 628 mmHg 94%
02:00 +3°C° 0 mm 0 mps 628 mmHg 95%
03:00 +3°C° 0 mm 0 mps 628 mmHg 95%
04:00 +3°C° 0 mm 0 mps 628 mmHg 95%
05:00 +4°C° 0 mm 0 mps 629 mmHg 90%
06:00 +6°C° 0 mm 0 mps 630 mmHg 86%
07:00 +8°C° 0 mm 0 mps 631 mmHg 81%
08:00 +10°C° 0 mm 0 mps 631 mmHg 69%
09:00 +13°C° 0 mm 1 mps 632 mmHg 57%
10:00 +16°C° 0 mm 1 mps 633 mmHg 45%
11:00 +18°C° 0 mm 1 mps 633 mmHg 43%
12:00 +19°C° 0 mm 1 mps 633 mmHg 40%
13:00 +19°C° 0 mm 2 mps 633 mmHg 37%
14:00 +19°C° 0 mm 2 mps 633 mmHg 39%
15:00 +18°C° 0 mm 2 mps 633 mmHg 41%
16:00 +18°C° 0 mm 2 mps 633 mmHg 43%
17:00 +17°C° 0 mm 2 mps 632 mmHg 54%
18:00 +15°C° 0 mm 1 mps 631 mmHg 66%
19:00 +13°C° 0 mm 1 mps 631 mmHg 77%
20:00 +12°C° 0 mm 1 mps 631 mmHg 81%
21:00 +10°C° 0 mm 1 mps 630 mmHg 85%
22:00 +8°C° 0 mm 1 mps 630 mmHg 89%
23:00 +8°C° 0 mm 1 mps 630 mmHg 88%
Show more